| time (UTC) | temp F | wind direction | speed MPH | gust MPH | rain 1hr in | rain 24hr in | rain mn in | humidity % | barometer mb |
| 20260508122602 | 51 | 270 | 5.0 | 13.0 | 0.00 | 0.00 | 0.00 | 52 | 1010.2 |
| 20260508122059 | 50 | 259 | 2.0 | 13.0 | 0.00 | 0.00 | 0.00 | 55 | 1010.2 |
| 20260508121559 | 49 | 253 | 5.0 | 13.0 | 0.00 | 0.00 | 0.00 | 54 | 1010.2 |
| 20260508121057 | 49 | 258 | 6.0 | 12.0 | 0.00 | 0.00 | 0.00 | 54 | 1010.2 |
| 20260508120555 | 49 | 252 | 4.0 | 11.0 | 0.00 | 0.00 | 0.00 | 55 | 1010.2 |
| 20260508120054 | 49 | 258 | 5.0 | 8.0 | 0.00 | 0.00 | 0.00 | 55 | 1010.1 |
| 20260508115553 | 48 | 239 | 3.0 | 8.0 | 0.00 | 0.00 | 0.00 | 56 | 1010.1 |
| 20260508115051 | 48 | 312 | 2.0 | 6.0 | 0.00 | 0.00 | 0.00 | 58 | 1010.1 |
| 20260508114552 | 47 | 233 | 1.0 | 8.0 | 0.00 | 0.00 | 0.00 | 60 | 1010.1 |
| 20260508114051 | 47 | 237 | 3.0 | 8.0 | 0.00 | 0.00 | 0.00 | 61 | 1010.2 |
| 20260508113547 | 46 | 246 | 2.0 | 7.0 | 0.00 | 0.00 | 0.00 | 62 | 1010.1 |
| 20260508113057 | 46 | 253 | 1.0 | 5.0 | 0.00 | 0.00 | 0.00 | 65 | 1010.1 |
| 20260508112543 | 45 | 245 | 2.0 | 6.0 | 0.00 | 0.00 | 0.00 | 67 | 1010.1 |
| 20260508112042 | 45 | 228 | 1.0 | 4.0 | 0.00 | 0.00 | 0.00 | 69 | 1010.0 |
| 20260508111544 | 44 | 241 | 0.0 | 4.0 | 0.00 | 0.00 | 0.00 | 71 | 1010.0 |
| 20260508111041 | 43 | 239 | 1.0 | 4.0 | 0.00 | 0.00 | 0.00 | 71 | 1009.9 |
| 20260508110541 | 43 | 239 | 0.0 | 3.0 | 0.00 | 0.00 | 0.00 | 73 | 1010.0 |
| 20260508110036 | 42 | 239 | 0.0 | 3.0 | 0.00 | 0.00 | 0.00 | 74 | 1009.9 |
| 20260508105535 | 41 | 235 | 0.0 | 3.0 | 0.00 | 0.00 | 0.00 | 76 | 1009.9 |
| 20260508105033 | 40 | 228 | 0.0 | 5.0 | 0.00 | 0.00 | 0.00 | 77 | 1009.9 |
| 20260508104532 | 40 | 228 | 0.0 | 5.0 | 0.00 | 0.00 | 0.00 | 79 | 1009.9 |
| 20260508104031 | 39 | 231 | 1.0 | 3.0 | 0.00 | 0.00 | 0.00 | 79 | 1009.8 |
| 20260508103530 | 39 | 222 | 0.0 | 3.0 | 0.00 | 0.00 | 0.00 | 80 | 1009.7 |
| 20260508103035 | 39 | 222 | 0.0 | 3.0 | 0.00 | 0.00 | 0.00 | 80 | 1009.5 |
| 20260508102529 | 39 | 222 | 1.0 | 3.0 | 0.00 | 0.00 | 0.00 | 81 | 1009.4 |
| 20260508102027 | 39 | 220 | 0.0 | 2.0 | 0.00 | 0.00 | 0.00 | 81 | 1009.3 |
| 20260508101527 | 38 | 220 | 0.0 | 2.0 | 0.00 | 0.00 | 0.00 | 81 | 1009.2 |
| 20260508101126 | 38 | 221 | 0.0 | 2.0 | 0.00 | 0.00 | 0.00 | 81 | 1009.2 |
| 20260508100525 | 38 | 221 | 0.0 | 2.0 | 0.00 | 0.00 | 0.00 | 83 | 1009.3 |
| 20260508100026 | 37 | 221 | 0.0 | 3.0 | 0.00 | 0.00 | 0.00 | 84 | 1009.3 |
| 20260508095525 | 37 | 220 | 0.0 | 3.0 | 0.00 | 0.00 | 0.00 | 84 | 1009.2 |
| 20260508095027 | 37 | 217 | 0.0 | 3.0 | 0.00 | 0.00 | 0.00 | 84 | 1009.3 |
| 20260508094523 | 36 | 218 | 0.0 | 3.0 | 0.00 | 0.00 | 0.00 | 84 | 1009.1 |
| 20260508094022 | 36 | 217 | 0.0 | 0.0 | 0.00 | 0.00 | 0.00 | 83 | 1009.1 |
| 20260508093522 | 37 | 218 | 0.0 | 0.0 | 0.00 | 0.00 | 0.00 | 84 | 1009.1 |
| 20260508093021 | 37 | 217 | 0.0 | 0.0 | 0.00 | 0.00 | 0.00 | 84 | 1009.1 |
| 20260508092521 | 37 | 217 | 0.0 | 0.0 | 0.00 | 0.00 | 0.00 | 83 | 1009.0 |
| 20260508092021 | 37 | 218 | 0.0 | 0.0 | 0.00 | 0.00 | 0.00 | 83 | 1009.0 |
| 20260508091520 | 37 | 218 | 0.0 | 0.0 | 0.00 | 0.00 | 0.00 | 84 | 1009.0 |
| 20260508091021 | 37 | 218 | 0.0 | 0.0 | 0.00 | 0.00 | 0.00 | 83 | 1009.0 |
| 20260508090519 | 37 | 217 | 0.0 | 0.0 | 0.00 | 0.00 | 0.00 | 83 | 1009.0 |
| 20260508090022 | 37 | 218 | 0.0 | 0.0 | 0.00 | 0.00 | 0.00 | 83 | 1008.9 |
| 20260508085518 | 37 | 218 | 0.0 | 1.0 | 0.00 | 0.00 | 0.00 | 83 | 1008.9 |
| 20260508085018 | 37 | 218 | 0.0 | 2.0 | 0.00 | 0.00 | 0.00 | 83 | 1008.9 |
| 20260508084517 | 37 | 218 | 0.0 | 3.0 | 0.00 | 0.00 | 0.00 | 82 | 1008.7 |
| 20260508084017 | 36 | 260 | 0.0 | 0.0 | 0.00 | 0.00 | 0.00 | 81 | 1008.7 |
| 20260508083515 | 37 | 260 | 0.0 | 0.0 | 0.00 | 0.00 | 0.00 | 81 | 1008.6 |
| 20260508083014 | 37 | 260 | 0.0 | 0.0 | 0.00 | 0.00 | 0.00 | 80 | 1008.6 |
| 20260508082513 | 37 | 260 | 0.0 | 0.0 | 0.00 | 0.00 | 0.00 | 80 | 1008.6 |
| 20260508082016 | 37 | 260 | 0.0 | 0.0 | 0.00 | 0.00 | 0.00 | 80 | 1008.6 |
| 20260508081533 | 38 | 260 | 0.0 | 0.0 | 0.00 | 0.00 | 0.00 | 80 | 1008.4 |
| 20260508081014 | 38 | 260 | 0.0 | 0.0 | 0.00 | 0.00 | 0.00 | 81 | 1008.1 |
| 20260508080511 | 38 | 260 | 0.0 | 0.0 | 0.00 | 0.00 | 0.00 | 81 | 1008.2 |
| 20260508080010 | 38 | 260 | 0.0 | 0.0 | 0.00 | 0.00 | 0.00 | 81 | 1008.1 |
| 20260508075510 | 38 | 260 | 0.0 | 0.0 | 0.00 | 0.00 | 0.00 | 80 | 1008.0 |
| 20260508075010 | 38 | 260 | 0.0 | 0.0 | 0.00 | 0.00 | 0.00 | 80 | 1008.0 |
| 20260508074509 | 39 | 260 | 0.0 | 0.0 | 0.00 | 0.00 | 0.00 | 80 | 1007.9 |
| 20260508074009 | 39 | 260 | 0.0 | 0.0 | 0.00 | 0.00 | 0.00 | 80 | 1007.8 |
| 20260508073508 | 39 | 260 | 0.0 | 1.0 | 0.00 | 0.00 | 0.00 | 79 | 1007.7 |
| 20260508073008 | 39 | 260 | 0.0 | 1.0 | 0.00 | 0.00 | 0.00 | 77 | 1007.7 |
| 20260508072505 | 39 | 260 | 0.0 | 1.0 | 0.00 | 0.00 | 0.00 | 77 | 1007.7 |
| 20260508072004 | 39 | 260 | 0.0 | 0.0 | 0.00 | 0.00 | 0.00 | 77 | 1007.7 |
| 20260508071507 | 39 | 260 | 0.0 | 0.0 | 0.00 | 0.00 | 0.00 | 76 | 1007.8 |
| 20260508071003 | 40 | 260 | 0.0 | 0.0 | 0.00 | 0.00 | 0.00 | 76 | 1007.8 |
| 20260508070507 | 40 | 260 | 0.0 | 2.0 | 0.00 | 0.00 | 0.00 | 77 | 1007.8 |
| 20260508070003 | 39 | 260 | 0.0 | 2.0 | 0.00 | 0.00 | 0.00 | 78 | 1007.8 |
| 20260508065502 | 40 | 260 | 0.0 | 2.0 | 0.00 | 0.00 | 0.00 | 78 | 1007.9 |
| 20260508065003 | 40 | 260 | 0.0 | 1.0 | 0.00 | 0.00 | 0.00 | 78 | 1007.9 |
| 20260508064503 | 40 | 260 | 0.0 | 1.0 | 0.00 | 0.00 | 0.00 | 78 | 1007.8 |
| 20260508064001 | 40 | 260 | 0.0 | 0.0 | 0.00 | 0.00 | 0.00 | 78 | 1007.9 |
| 20260508063501 | 40 | 260 | 0.0 | 1.0 | 0.00 | 0.00 | 0.00 | 78 | 1007.9 |
| 20260508063117 | 40 | 260 | 0.0 | 1.0 | 0.00 | 0.00 | 0.00 | 78 | 1007.9 |
| 20260508062559 | 40 | 260 | 0.0 | 1.0 | 0.00 | 0.00 | 0.00 | 78 | 1007.9 |
| 20260508062102 | 40 | 260 | 0.0 | 1.0 | 0.00 | 0.00 | 0.00 | 78 | 1007.9 |
| 20260508061558 | 40 | 260 | 0.0 | 1.0 | 0.00 | 0.00 | 0.00 | 77 | 1007.9 |
| 20260508061058 | 40 | 259 | 0.0 | 1.0 | 0.00 | 0.00 | 0.00 | 75 | 1008.0 |
| 20260508060557 | 40 | 260 | 0.0 | 0.0 | 0.00 | 0.00 | 0.00 | 74 | 1008.0 |
| 20260508060058 | 40 | 260 | 0.0 | 0.0 | 0.00 | 0.00 | 0.00 | 74 | 1008.1 |
| 20260508055558 | 40 | 260 | 0.0 | 0.0 | 0.00 | 0.00 | 0.00 | 74 | 1008.2 |
| 20260508055056 | 41 | 260 | 0.0 | 0.0 | 0.00 | 0.00 | 0.00 | 74 | 1008.2 |
| 20260508054553 | 41 | 260 | 0.0 | 0.0 | 0.00 | 0.00 | 0.00 | 73 | 1008.3 |
| 20260508054053 | 41 | 260 | 0.0 | 0.0 | 0.00 | 0.00 | 0.00 | 73 | 1008.3 |
| 20260508053553 | 41 | 260 | 0.0 | 0.0 | 0.00 | 0.00 | 0.00 | 73 | 1008.3 |
| 20260508053049 | 42 | 260 | 0.0 | 0.0 | 0.00 | 0.00 | 0.00 | 72 | 1008.3 |
| 20260508052549 | 42 | 260 | 0.0 | 0.0 | 0.00 | 0.00 | 0.00 | 72 | 1008.3 |
| 20260508052047 | 42 | 260 | 0.0 | 0.0 | 0.00 | 0.00 | 0.00 | 71 | 1008.3 |
| 20260508051546 | 42 | 260 | 0.0 | 0.0 | 0.00 | 0.00 | 0.00 | 71 | 1008.4 |
| 20260508051045 | 43 | 260 | 0.0 | 0.0 | 0.00 | 0.00 | 0.00 | 70 | 1008.4 |
| 20260508050544 | 43 | 260 | 0.0 | 0.0 | 0.00 | 0.00 | 0.00 | 70 | 1008.5 |
| 20260508050043 | 43 | 260 | 0.0 | 0.0 | 0.00 | 0.00 | 0.00 | 69 | 1008.5 |
| 20260508045542 | 44 | 260 | 0.0 | 0.0 | 0.00 | 0.01 | 0.00 | 69 | 1008.6 |
| 20260508045041 | 44 | 260 | 0.0 | 0.0 | 0.00 | 0.01 | 0.00 | 66 | 1008.5 |
| 20260508044542 | 44 | 260 | 0.0 | 0.0 | 0.00 | 0.01 | 0.00 | 65 | 1008.7 |
| 20260508044041 | 45 | 260 | 0.0 | 1.0 | 0.00 | 0.01 | 0.00 | 66 | 1008.7 |
| 20260508043541 | 45 | 260 | 0.0 | 2.0 | 0.00 | 0.01 | 0.00 | 64 | 1008.7 |
| 20260508043040 | 44 | 260 | 0.0 | 5.0 | 0.00 | 0.01 | 0.00 | 66 | 1008.7 |
| 20260508042539 | 44 | 246 | 1.0 | 3.0 | 0.00 | 0.01 | 0.00 | 68 | 1008.7 |
| 20260508042039 | 44 | 245 | 0.0 | 3.0 | 0.00 | 0.01 | 0.00 | 68 | 1008.7 |
| 20260508041537 | 44 | 246 | 0.0 | 2.0 | 0.00 | 0.01 | 0.00 | 68 | 1008.7 |
| 20260508041036 | 44 | 246 | 0.0 | 0.0 | 0.00 | 0.01 | 0.00 | 65 | 1008.7 |
| 20260508040535 | 45 | 246 | 0.0 | 0.0 | 0.00 | 0.01 | 0.00 | 65 | 1008.7 |
| 20260508040040 | 45 | 246 | 0.0 | 0.0 | 0.00 | 0.01 | 0.00 | 65 | 1008.6 |
| 20260508035532 | 46 | 246 | 0.0 | 0.0 | 0.00 | 0.01 | 0.01 | 65 | 1008.6 |
| 20260508035036 | 46 | 246 | 0.0 | 2.0 | 0.00 | 0.01 | 0.01 | 66 | 1008.6 |
| 20260508034532 | 46 | 246 | 0.0 | 2.0 | 0.00 | 0.01 | 0.01 | 65 | 1008.5 |
| 20260508034031 | 46 | 246 | 0.0 | 1.0 | 0.00 | 0.01 | 0.01 | 64 | 1008.4 |
| 20260508033531 | 47 | 246 | 0.0 | 1.0 | 0.00 | 0.01 | 0.01 | 62 | 1008.5 |
| 20260508033031 | 47 | 246 | 0.0 | 0.0 | 0.00 | 0.01 | 0.01 | 61 | 1008.5 |
| 20260508032531 | 47 | 246 | 0.0 | 0.0 | 0.00 | 0.01 | 0.01 | 61 | 1008.5 |
| 20260508032030 | 47 | 246 | 0.0 | 3.0 | 0.00 | 0.01 | 0.01 | 60 | 1008.6 |
| 20260508031531 | 47 | 246 | 0.0 | 3.0 | 0.00 | 0.01 | 0.01 | 60 | 1008.4 |
| 20260508031031 | 47 | 246 | 0.0 | 4.0 | 0.00 | 0.01 | 0.01 | 61 | 1008.4 |
| 20260508030531 | 46 | 246 | 0.0 | 4.0 | 0.00 | 0.01 | 0.01 | 64 | 1008.5 |
| 20260508030031 | 46 | 245 | 0.0 | 2.0 | 0.00 | 0.01 | 0.01 | 65 | 1008.4 |
| 20260508025531 | 46 | 244 | 0.0 | 2.0 | 0.00 | 0.01 | 0.01 | 66 | 1008.5 |
| 20260508025030 | 46 | 245 | 0.0 | 1.0 | 0.00 | 0.01 | 0.01 | 66 | 1008.4 |
| 20260508024543 | 46 | 245 | 0.0 | 2.0 | 0.00 | 0.01 | 0.01 | 66 | 1008.4 |
| 20260508024030 | 46 | 245 | 0.0 | 3.0 | 0.00 | 0.01 | 0.01 | 66 | 1008.4 |
| 20260508023528 | 46 | 245 | 0.0 | 3.0 | 0.00 | 0.01 | 0.01 | 67 | 1008.2 |
| 20260508023028 | 46 | 244 | 1.0 | 3.0 | 0.00 | 0.01 | 0.01 | 66 | 1008.2 |
| 20260508022527 | 46 | 245 | 0.0 | 0.0 | 0.00 | 0.01 | 0.01 | 67 | 1008.3 |
| 20260508022027 | 47 | 244 | 0.0 | 3.0 | 0.00 | 0.01 | 0.01 | 65 | 1008.5 |
| 20260508021527 | 47 | 244 | 0.0 | 3.0 | 0.00 | 0.01 | 0.01 | 66 | 1008.3 |
| 20260508021026 | 47 | 245 | 0.0 | 3.0 | 0.00 | 0.01 | 0.01 | 66 | 1008.3 |
| 20260508020525 | 47 | 244 | 0.0 | 3.0 | 0.00 | 0.01 | 0.01 | 65 | 1008.3 |
| 20260508020026 | 47 | 244 | 0.0 | 2.0 | 0.00 | 0.01 | 0.01 | 65 | 1008.3 |
| 20260508015525 | 48 | 244 | 0.0 | 2.0 | 0.00 | 0.01 | 0.01 | 64 | 1008.3 |
| 20260508015025 | 48 | 244 | 0.0 | 0.0 | 0.00 | 0.01 | 0.01 | 62 | 1008.2 |
| 20260508014529 | 48 | 243 | 0.0 | 0.0 | 0.00 | 0.01 | 0.01 | 62 | 1008.1 |
| 20260508014027 | 49 | 243 | 0.0 | 2.0 | 0.00 | 0.01 | 0.01 | 60 | 1008.0 |
| 20260508013526 | 49 | 243 | 0.0 | 2.0 | 0.00 | 0.01 | 0.01 | 58 | 1007.9 |
| 20260508013024 | 49 | 244 | 0.0 | 4.0 | 0.00 | 0.01 | 0.01 | 59 | 1007.9 |
| 20260508012524 | 50 | 244 | 0.0 | 4.0 | 0.00 | 0.01 | 0.01 | 58 | 1007.8 |
| 20260508012024 | 50 | 249 | 0.0 | 3.0 | 0.00 | 0.01 | 0.01 | 57 | 1007.7 |
| 20260508011525 | 50 | 254 | 0.0 | 2.0 | 0.00 | 0.01 | 0.01 | 55 | 1007.6 |
| 20260508011024 | 51 | 254 | 0.0 | 0.0 | 0.00 | 0.01 | 0.01 | 55 | 1007.7 |
| 20260508010524 | 51 | 255 | 0.0 | 0.0 | 0.00 | 0.01 | 0.01 | 53 | 1007.7 |
| 20260508010032 | 52 | 254 | 0.0 | 1.0 | 0.00 | 0.01 | 0.01 | 48 | 1007.6 |
| 20260508005524 | 53 | 255 | 0.0 | 1.0 | 0.00 | 0.01 | 0.01 | 49 | 1007.5 |
| 20260508005023 | 53 | 254 | 0.0 | 4.0 | 0.00 | 0.01 | 0.01 | 46 | 1007.4 |
| 20260508004523 | 53 | 255 | 0.0 | 4.0 | 0.00 | 0.01 | 0.01 | 45 | 1007.3 |
| 20260508004024 | 53 | 274 | 1.0 | 4.0 | 0.00 | 0.01 | 0.01 | 45 | 1007.3 |
| 20260508003523 | 54 | 275 | 1.0 | 6.0 | 0.00 | 0.01 | 0.01 | 44 | 1007.3 |
| 20260508003023 | 54 | 248 | 1.0 | 7.0 | 0.00 | 0.01 | 0.01 | 43 | 1007.3 |
| 20260508002523 | 54 | 258 | 2.0 | 9.0 | 0.00 | 0.01 | 0.01 | 43 | 1007.3 |
| 20260508002023 | 54 | 220 | 2.0 | 10.0 | 0.00 | 0.01 | 0.01 | 43 | 1007.1 |
| 20260508001522 | 54 | 272 | 1.0 | 10.0 | 0.00 | 0.01 | 0.01 | 43 | 1007.1 |
| 20260508001022 | 54 | 268 | 1.0 | 7.0 | 0.00 | 0.01 | 0.01 | 43 | 1007.1 |
| 20260508000523 | 55 | 262 | 2.0 | 7.0 | 0.00 | 0.01 | 0.01 | 43 | 1007.0 |
| 20260508000022 | 55 | 258 | 0.0 | 10.0 | 0.00 | 0.01 | 0.01 | 42 | 1006.9 |
| 20260507235522 | 55 | 279 | 3.0 | 10.0 | 0.00 | 0.07 | 0.01 | 41 | 1006.8 |
| 20260507235022 | 56 | 233 | 0.0 | 8.0 | 0.00 | 0.07 | 0.01 | 41 | 1006.8 |
| 20260507234522 | 56 | 253 | 1.0 | 8.0 | 0.00 | 0.07 | 0.01 | 40 | 1006.7 |
| 20260507234022 | 56 | 251 | 1.0 | 8.0 | 0.00 | 0.07 | 0.01 | 41 | 1006.7 |
| 20260507233522 | 56 | 230 | 2.0 | 12.0 | 0.00 | 0.07 | 0.01 | 39 | 1006.7 |
| 20260507233035 | 57 | 281 | 4.0 | 12.0 | 0.00 | 0.07 | 0.01 | 39 | 1006.6 |
| 20260507232522 | 57 | 255 | 2.0 | 8.0 | 0.00 | 0.07 | 0.01 | 39 | 1006.6 |
| 20260507232021 | 57 | 278 | 4.0 | 8.0 | 0.00 | 0.07 | 0.01 | 39 | 1006.4 |
| 20260507231532 | 57 | 245 | 2.0 | 13.0 | 0.00 | 0.07 | 0.01 | 40 | 1006.5 |
| 20260507231021 | 58 | 229 | 4.0 | 13.0 | 0.00 | 0.07 | 0.01 | 37 | 1006.4 |
| 20260507230520 | 58 | 234 | 5.0 | 10.0 | 0.00 | 0.07 | 0.01 | 38 | 1006.4 |
| 20260507230020 | 58 | 223 | 4.0 | 10.0 | 0.00 | 0.07 | 0.01 | 38 | 1006.4 |
| 20260507225521 | 59 | 262 | 1.0 | 8.0 | 0.00 | 0.14 | 0.01 | 37 | 1006.3 |
| 20260507225021 | 59 | 254 | 4.0 | 12.0 | 0.00 | 0.14 | 0.01 | 36 | 1006.3 |
| 20260507224521 | 59 | 264 | 4.0 | 12.0 | 0.00 | 0.14 | 0.01 | 35 | 1006.3 |
| 20260507224020 | 59 | 263 | 4.0 | 12.0 | 0.00 | 0.14 | 0.01 | 36 | 1006.1 |
| 20260507223522 | 60 | 251 | 5.0 | 12.0 | 0.00 | 0.14 | 0.01 | 36 | 1006.1 |
| 20260507223020 | 60 | 247 | 4.0 | 12.0 | 0.00 | 0.14 | 0.01 | 38 | 1006.1 |
| 20260507222520 | 60 | 258 | 6.0 | 12.0 | 0.00 | 0.14 | 0.01 | 36 | 1006.0 |
| 20260507222019 | 60 | 269 | 5.0 | 13.0 | 0.00 | 0.14 | 0.01 | 36 | 1006.0 |
| 20260507221525 | 60 | 339 | 5.0 | 13.0 | 0.00 | 0.14 | 0.01 | 36 | 1006.1 |
| 20260507221018 | 61 | 280 | 2.0 | 13.0 | 0.00 | 0.14 | 0.01 | 35 | 1005.9 |
| 20260507220520 | 61 | 278 | 4.0 | 13.0 | 0.00 | 0.14 | 0.01 | 35 | 1005.9 |
| 20260507220021 | 61 | 259 | 4.0 | 10.0 | 0.00 | 0.14 | 0.01 | 36 | 1005.8 |
| 20260507215518 | 61 | 254 | 3.0 | 14.0 | 0.00 | 0.16 | 0.01 | 36 | 1005.7 |
| 20260507215017 | 62 | 323 | 5.0 | 14.0 | 0.00 | 0.16 | 0.01 | 35 | 1005.8 |
| 20260507214519 | 62 | 266 | 5.0 | 18.0 | 0.00 | 0.16 | 0.01 | 34 | 1005.8 |
| 20260507214018 | 62 | 310 | 8.0 | 18.0 | 0.00 | 0.16 | 0.01 | 36 | 1005.8 |
| 20260507213517 | 62 | 231 | 8.0 | 15.0 | 0.00 | 0.16 | 0.01 | 34 | 1005.6 |
| 20260507213018 | 62 | 323 | 7.0 | 15.0 | 0.00 | 0.16 | 0.01 | 34 | 1005.6 |
| 20260507212516 | 61 | 264 | 5.0 | 11.0 | 0.00 | 0.16 | 0.01 | 36 | 1005.6 |
| 20260507212016 | 61 | 225 | 4.0 | 14.0 | 0.00 | 0.16 | 0.01 | 34 | 1005.7 |
| 20260507211522 | 64 | 252 | 6.0 | 14.0 | 0.00 | 0.16 | 0.01 | 34 | 1005.7 |
| 20260507211017 | 64 | 276 | 6.0 | 14.0 | 0.00 | 0.16 | 0.01 | 35 | 1005.7 |
| 20260507210516 | 63 | 316 | 3.0 | 12.0 | 0.00 | 0.16 | 0.01 | 38 | 1005.7 |
| 20260507210016 | 62 | 258 | 7.0 | 14.0 | 0.00 | 0.16 | 0.01 | 37 | 1005.7 |
| 20260507205516 | 62 | 327 | 4.0 | 14.0 | 0.00 | 0.21 | 0.01 | 36 | 1005.6 |
| 20260507205015 | 63 | 270 | 6.0 | 15.0 | 0.00 | 0.21 | 0.01 | 35 | 1005.5 |
| 20260507204516 | 62 | 222 | 5.0 | 20.0 | 0.00 | 0.21 | 0.01 | 38 | 1005.5 |
| 20260507204016 | 63 | 228 | 10.0 | 20.0 | 0.00 | 0.21 | 0.01 | 33 | 1005.6 |
| 20260507203518 | 64 | 260 | 8.0 | 15.0 | 0.00 | 0.21 | 0.01 | 35 | 1005.4 |
| 20260507203015 | 63 | 231 | 5.0 | 14.0 | 0.00 | 0.21 | 0.01 | 35 | 1005.5 |
| 20260507202515 | 64 | 293 | 6.0 | 14.0 | 0.00 | 0.21 | 0.01 | 35 | 1005.5 |
| 20260507202016 | 65 | 237 | 6.0 | 14.0 | 0.00 | 0.21 | 0.01 | 34 | 1005.5 |
| 20260507201514 | 64 | 240 | 6.0 | 14.0 | 0.00 | 0.21 | 0.01 | 32 | 1005.5 |
| 20260507201014 | 64 | 290 | 3.0 | 13.0 | 0.00 | 0.21 | 0.01 | 33 | 1005.5 |
| 20260507200513 | 64 | 253 | 6.0 | 13.0 | 0.00 | 0.21 | 0.01 | 35 | 1005.7 |
| 20260507200013 | 64 | 254 | 3.0 | 18.0 | 0.00 | 0.21 | 0.01 | 33 | 1005.6 |
| 20260507195516 | 62 | 231 | 9.0 | 18.0 | 0.00 | 0.25 | 0.01 | 36 | 1005.7 |
| 20260507195015 | 62 | 226 | 6.0 | 12.0 | 0.00 | 0.25 | 0.01 | 35 | 1005.7 |
| 20260507194514 | 62 | 231 | 8.0 | 13.0 | 0.00 | 0.25 | 0.01 | 34 | 1005.8 |
| 20260507194012 | 63 | 262 | 6.0 | 14.0 | 0.00 | 0.25 | 0.01 | 35 | 1005.9 |
| 20260507193511 | 64 | 250 | 7.0 | 13.0 | 0.00 | 0.25 | 0.01 | 36 | 1005.8 |
| 20260507193010 | 62 | 168 | 5.0 | 17.0 | 0.00 | 0.25 | 0.01 | 32 | 1005.8 |
| 20260507192509 | 64 | 213 | 8.0 | 17.0 | 0.00 | 0.25 | 0.01 | 33 | 1005.9 |
| 20260507192010 | 64 | 238 | 4.0 | 15.0 | 0.00 | 0.25 | 0.01 | 35 | 1005.9 |
| 20260507191509 | 64 | 252 | 6.0 | 15.0 | 0.00 | 0.25 | 0.01 | 33 | 1006.0 |
| 20260507191007 | 65 | 310 | 4.0 | 12.0 | 0.00 | 0.25 | 0.01 | 39 | 1006.0 |
| 20260507190508 | 63 | 332 | 6.0 | 16.0 | 0.00 | 0.25 | 0.01 | 40 | 1006.2 |
| 20260507190007 | 62 | 260 | 7.0 | 16.0 | 0.00 | 0.25 | 0.01 | 38 | 1006.2 |
| 20260507185506 | 61 | 268 | 2.0 | 13.0 | 0.00 | 0.26 | 0.01 | 42 | 1006.3 |
| 20260507185007 | 62 | 310 | 5.0 | 13.0 | 0.00 | 0.26 | 0.01 | 39 | 1006.4 |
| 20260507184508 | 64 | 291 | 4.0 | 14.0 | 0.00 | 0.26 | 0.01 | 39 | 1006.4 |
| 20260507184007 | 64 | 110 | 2.0 | 14.0 | 0.00 | 0.26 | 0.01 | 39 | 1006.4 |
| 20260507183509 | 64 | 227 | 5.0 | 12.0 | 0.00 | 0.26 | 0.01 | 38 | 1006.3 |
| 20260507183011 | 64 | 241 | 4.0 | 14.0 | 0.00 | 0.26 | 0.01 | 43 | 1006.4 |
| 20260507182506 | 62 | 249 | 4.0 | 14.0 | 0.00 | 0.26 | 0.01 | 39 | 1006.5 |
| 20260507182007 | 64 | 258 | 7.0 | 14.0 | 0.00 | 0.26 | 0.01 | 39 | 1006.4 |
| 20260507181505 | 63 | 282 | 7.0 | 13.0 | 0.00 | 0.26 | 0.01 | 38 | 1006.4 |
| 20260507181009 | 63 | 275 | 6.0 | 11.0 | 0.00 | 0.26 | 0.01 | 41 | 1006.5 |
| 20260507180505 | 65 | 274 | 5.0 | 16.0 | 0.00 | 0.26 | 0.01 | 36 | 1006.5 |
| 20260507180004 | 65 | 285 | 2.0 | 15.0 | 0.00 | 0.26 | 0.01 | 40 | 1006.5 |
| 20260507175503 | 64 | 272 | 7.0 | 15.0 | 0.00 | 0.26 | 0.01 | 39 | 1006.5 |
| 20260507175003 | 63 | 274 | 4.0 | 13.0 | 0.00 | 0.26 | 0.01 | 39 | 1006.4 |
| 20260507174502 | 62 | 270 | 6.0 | 13.0 | 0.00 | 0.26 | 0.01 | 41 | 1006.5 |
| 20260507174003 | 62 | 248 | 7.0 | 18.0 | 0.00 | 0.26 | 0.01 | 40 | 1006.3 |
| 20260507173502 | 62 | 272 | 8.0 | 18.0 | 0.00 | 0.26 | 0.01 | 42 | 1006.5 |
| 20260507173005 | 63 | 239 | 4.0 | 14.0 | 0.00 | 0.26 | 0.01 | 45 | 1006.3 |
| 20260507172502 | 61 | 332 | 6.0 | 16.0 | 0.00 | 0.26 | 0.01 | 41 | 1006.4 |
| 20260507172000 | 62 | 251 | 7.0 | 17.0 | 0.00 | 0.26 | 0.01 | 42 | 1006.5 |
| 20260507171606 | 62 | 239 | 9.0 | 17.0 | 0.00 | 0.26 | 0.01 | 41 | 1006.5 |
| 20260507171100 | 63 | 256 | 9.0 | 17.0 | 0.00 | 0.26 | 0.01 | 40 | 1006.6 |
| 20260507170559 | 61 | 270 | 4.0 | 18.0 | 0.00 | 0.26 | 0.01 | 40 | 1006.7 |
| 20260507170104 | 62 | 253 | 6.0 | 19.0 | 0.00 | 0.26 | 0.01 | 41 | 1006.7 |
| 20260507165557 | 62 | 335 | 7.0 | 19.0 | 0.00 | 0.26 | 0.01 | 41 | 1006.6 |
| 20260507165200 | 62 | 308 | 7.0 | 19.0 | 0.00 | 0.26 | 0.01 | 42 | 1006.9 |
| 20260507164604 | 62 | 283 | 7.0 | 16.0 | 0.00 | 0.26 | 0.01 | 42 | 1006.9 |
| 20260507164057 | 61 | 226 | 4.0 | 15.0 | 0.00 | 0.26 | 0.01 | 49 | 1006.8 |
| 20260507163557 | 61 | 196 | 6.0 | 15.0 | 0.00 | 0.26 | 0.01 | 47 | 1006.9 |
| 20260507163056 | 61 | 272 | 8.0 | 16.0 | 0.00 | 0.26 | 0.01 | 43 | 1006.9 |
| 20260507162554 | 62 | 201 | 8.0 | 16.0 | 0.00 | 0.26 | 0.01 | 47 | 1006.9 |
| 20260507162053 | 61 | 247 | 4.0 | 11.0 | 0.00 | 0.26 | 0.01 | 46 | 1006.9 |
| 20260507161555 | 61 | 226 | 2.0 | 16.0 | 0.00 | 0.26 | 0.01 | 48 | 1006.9 |
| 20260507161052 | 59 | 241 | 7.0 | 11.0 | 0.00 | 0.26 | 0.01 | 49 | 1007.1 |
| 20260507160552 | 59 | 257 | 6.0 | 16.0 | 0.00 | 0.26 | 0.01 | 54 | 1007.1 |
| 20260507160055 | 58 | 253 | 6.0 | 17.0 | 0.00 | 0.26 | 0.01 | 53 | 1007.2 |
| 20260507155550 | 60 | 260 | 9.0 | 17.0 | 0.00 | 0.26 | 0.01 | 54 | 1007.2 |
| 20260507155050 | 59 | 308 | 6.0 | 17.0 | 0.00 | 0.26 | 0.01 | 56 | 1007.2 |
| 20260507154553 | 59 | 228 | 6.0 | 13.0 | 0.00 | 0.26 | 0.01 | 56 | 1007.3 |
| 20260507154048 | 58 | 274 | 1.0 | 12.0 | 0.00 | 0.26 | 0.01 | 62 | 1007.3 |
| 20260507153549 | 58 | 274 | 3.0 | 12.0 | 0.00 | 0.26 | 0.01 | 60 | 1007.5 |
| 20260507153048 | 58 | 271 | 5.0 | 13.0 | 0.00 | 0.26 | 0.01 | 60 | 1007.5 |
| 20260507152548 | 59 | 258 | 3.0 | 13.0 | 0.00 | 0.26 | 0.01 | 61 | 1007.6 |
| 20260507152048 | 58 | 270 | 5.0 | 11.0 | 0.00 | 0.26 | 0.01 | 60 | 1007.6 |
| 20260507151547 | 57 | 239 | 5.0 | 11.0 | 0.00 | 0.26 | 0.01 | 60 | 1007.7 |
| 20260507151046 | 58 | 262 | 3.0 | 12.0 | 0.00 | 0.26 | 0.01 | 60 | 1007.8 |
| 20260507150547 | 57 | 264 | 5.0 | 12.0 | 0.00 | 0.26 | 0.01 | 60 | 1007.7 |
| 20260507150046 | 57 | 256 | 3.0 | 13.0 | 0.00 | 0.26 | 0.01 | 60 | 1007.7 |
| 20260507145545 | 56 | 245 | 4.0 | 13.0 | 0.00 | 0.26 | 0.01 | 59 | 1007.8 |
| 20260507145046 | 57 | 203 | 5.0 | 12.0 | 0.00 | 0.26 | 0.01 | 61 | 1007.9 |
| 20260507144546 | 58 | 225 | 4.0 | 12.0 | 0.00 | 0.26 | 0.01 | 58 | 1007.9 |
| 20260507144048 | 59 | 293 | 4.0 | 15.0 | 0.00 | 0.26 | 0.01 | 58 | 1007.9 |
| 20260507143548 | 58 | 220 | 6.0 | 15.0 | 0.00 | 0.26 | 0.01 | 59 | 1007.8 |
| 20260507143042 | 59 | 274 | 5.0 | 13.0 | 0.00 | 0.26 | 0.01 | 57 | 1007.8 |
| 20260507142541 | 59 | 243 | 7.0 | 13.0 | 0.00 | 0.26 | 0.01 | 57 | 1007.7 |
| 20260507142039 | 59 | 238 | 3.0 | 13.0 | 0.00 | 0.26 | 0.01 | 58 | 1007.7 |
| 20260507141542 | 58 | 235 | 5.0 | 13.0 | 0.00 | 0.26 | 0.01 | 58 | 1007.7 |
| 20260507141037 | 58 | 232 | 4.0 | 10.0 | 0.00 | 0.26 | 0.01 | 56 | 1007.7 |
| 20260507140535 | 58 | 312 | 3.0 | 13.0 | 0.00 | 0.26 | 0.01 | 61 | 1007.7 |
| 20260507140035 | 57 | 234 | 5.0 | 13.0 | 0.00 | 0.26 | 0.01 | 58 | 1007.7 |
| 20260507135534 | 57 | 262 | 7.0 | 12.0 | 0.00 | 0.26 | 0.01 | 58 | 1007.6 |
| 20260507135032 | 58 | 90 | 2.0 | 10.0 | 0.00 | 0.26 | 0.01 | 61 | 1007.5 |
| 20260507134532 | 57 | 312 | 3.0 | 10.0 | 0.00 | 0.26 | 0.01 | 58 | 1007.5 |
| 20260507134030 | 57 | 254 | 2.0 | 12.0 | 0.00 | 0.26 | 0.01 | 61 | 1007.5 |
| 20260507133529 | 56 | 285 | 3.0 | 12.0 | 0.00 | 0.26 | 0.01 | 61 | 1007.7 |
| 20260507133026 | 56 | 267 | 3.0 | 9.0 | 0.00 | 0.26 | 0.01 | 62 | 1007.7 |
| 20260507132526 | 56 | 295 | 3.0 | 11.0 | 0.00 | 0.26 | 0.01 | 64 | 1007.8 |
| 20260507132023 | 55 | 261 | 4.0 | 11.0 | 0.00 | 0.26 | 0.01 | 64 | 1008.0 |
| 20260507131530 | 55 | 266 | 5.0 | 10.0 | 0.00 | 0.26 | 0.01 | 64 | 1008.0 |
| 20260507131021 | 55 | 321 | 3.0 | 9.0 | 0.00 | 0.26 | 0.01 | 66 | 1008.1 |
| 20260507130522 | 55 | 297 | 4.0 | 10.0 | 0.00 | 0.26 | 0.01 | 66 | 1008.1 |
| 20260507130018 | 55 | 288 | 4.0 | 11.0 | 0.00 | 0.26 | 0.01 | 67 | 1008.2 |
| 20260507125517 | 54 | 281 | 4.0 | 12.0 | 0.00 | 0.26 | 0.01 | 66 | 1008.1 |
| 20260507125015 | 54 | 263 | 4.0 | 13.0 | 0.00 | 0.26 | 0.01 | 67 | 1008.2 |
| 20260507124515 | 54 | 301 | 3.0 | 13.0 | 0.00 | 0.26 | 0.01 | 68 | 1008.1 |
| 20260507124012 | 54 | 257 | 5.0 | 14.0 | 0.00 | 0.26 | 0.01 | 69 | 1008.1 |
| 20260507123515 | 53 | 26 | 5.0 | 12.0 | 0.00 | 0.26 | 0.01 | 71 | 1008.1 |
| 20260507123013 | 52 | 321 | 1.0 | 12.0 | 0.00 | 0.26 | 0.01 | 76 | 1008.3 |